sat.trackr.live / text

‹ back to catalog

RAPTOR1

NORAD 58957 · 2024-028C

PAYLOAD ACTIVE UNKNOWN

§ Identity

Operator
Country
US
Launch date
2024-02-14
Launch site
AFETR
Launch vehicle
Mass (kg)
RCS (m²)

External: N2YO · Heavens-Above · Gunter

§ Orbital elements

Epoch: 2026-05-25T04:54:11.022336Z

Period
105.05 min
Inclination
39.9884°
Eccentricity
0.0011173
Mean motion
13.70767089 rev/d
Perigee alt
988.6 km
Apogee alt
1,005.1 km
Semi-major
7,375.0 km
B*
4.0910e-5
RAAN
149.5478°
Arg perigee
121.9968°
Mean anomaly
238.1866°
Rev number
11,390

§ Raw data

RAPTOR11 58957U 24028C   26145.20429424 -.00000041  00000+0  40910-4 0  99982 58957  39.9884 149.5478 0011173 121.9968 238.1866 13.70767089113900

JSON: /api/v1/satellites/58957 · /tle

For live sub-satellite position, see the globe view (requires WebGL).

§ Visibility from observer

Set your observer location to see the next 7 days of passes ≥ 10°. The values pass through the URL so the page stays shareable.

No JS? Fill the form by hand. The geolocation button needs JavaScript.